Location: Newark
(37.3186°N, 13.6631°E)
Time: 01:21:13
(UTC+00:00)

ISS - Pass Details

Date: 21 November 2019
Orbit: 411 x 421 km, 51.6° (Epoch: 10 December)

Event Time Altitude Azimuth Distance (km) Brightness Sun altitude
Rises 16:34:48 0° 201° (SSW) 2,336 0.6 -8.8°
Reaches altitude 10° 16:37:08 10° 186° (S) 1,481 -0.6 -9.3°
Maximum altitude 16:39:51 23° 131° (SE) 923 -2.3 -9.8°
Enters shadow 16:41:48 14° 86° (E) 1,250 -2.0 -10.2°
